Wind_Speed
41 42 44 45 46 47 49 48 47 47 46 46 45 43 42 40 39 36 32 33 37 40 44 45 45 45 44 44 44 44 43 44 45 46 48 42 40 43 43 43 42 42 43 40 39 39 37 36 35 34 33 32 30 28 26 26 25 24 23 22 23 24 22 19 16 13 11 10 10 11 11 10 9 8 8 7 5 3 3 3 4 4 4 5 6 7 8 7
37 39 41 42 44 45 47 49 49 49 48 47 47 45 43 41 40 38 34 33 35 36 39 44 45 45 45 45 45 45 45 45 46 48 44 36 38 44 42 42 43 44 43 42 40 39 38 37 36 35 34 34 33 30 28 27 27 27 26 26 27 25 23 20 17 15 14 13 11 11 12 11 11 10 10 9 7 5 4 1 3 4 4 5 6 6 7 7
34 36 38 39 41 42 44 47 49 50 49 49 48 47 45 43 41 41 38 35 35 34 34 38 43 46 46 45 46 46 46 46 48 48 39 35 41 42 40 41 42 44 44 43 42 40 39 38 38 36 35 35 35 33 31 30 29 29 28 29 29 26 24 22 19 18 17 16 15 14 13 12 12 12 12 11 9 8 5 2 3 4 4 6 6 5 5 5
31 32 35 37 39 40 40 43 46 48 50 50 49 48 47 46 43 41 39 36 34 33 32 33 38 43 44 45 46 46 47 48 50 46 36 38 43 38 37 39 41 44 45 44 43 42 40 39 39 38 36 36 35 35 34 33 31 30 31 32 30 27 27 25 21 20 19 19 19 19 17 15 14 14 14 13 12 10 5 3 5 5 5 6 6 6 4 3
29 29 31 34 37 38 37 39 42 45 47 49 50 50 49 48 46 43 40 39 37 35 34 34 35 38 42 44 46 46 46 46 49 46 39 41 41 36 36 38 41 45 46 45 45 43 41 40 40 39 38 37 36 37 36 35 33 32 33 32 30 30 29 27 24 22 21 21 22 23 22 20 18 17 16 16 16 11 6 6 8 7 7 7 7 6 3 2
29 28 29 30 32 35 36 36 38 41 43 46 49 50 50 49 48 46 42 41 40 36 35 35 34 35 38 42 44 46 46 43 41 41 42 43 40 36 37 39 42 45 46 47 46 45 43 42 41 40 40 38 37 37 37 35 34 35 35 33 32 33 32 29 27 25 24 23 23 23 25 24 22 21 20 20 18 13 10 11 10 9 10 9 7 6 3 2
29 29 30 29 29 31 34 35 35 38 40 42 46 48 50 50 49 48 44 41 40 38 37 35 34 34 35 40 44 46 51 49 40 36 38 41 40 38 38 38 41 45 46 46 47 46 44 44 43 42 40 39 38 38 36 34 35 36 36 35 33 34 34 32 30 29 27 26 25 25 26 26 25 24 24 23 20 16 14 14 13 12 12 11 9 7 5 4
27 28 29 29 29 29 31 33 34 35 37 39 42 45 48 50 49 49 47 44 40 39 39 36 34 34 34 39 43 46 54 54 44 39 37 35 36 38 39 39 40 44 45 45 45 45 45 45 44 42 41 40 39 37 36 35 36 37 37 36 34 35 35 34 33 32 31 30 28 28 28 27 26 27 28 26 21 18 18 19 18 16 15 13 9 8 9 6
26 26 27 28 29 29 30 31 33 34 34 36 39 41 44 46 48 49 49 46 43 41 40 36 34 34 34 38 41 47 56 52 43 42 42 37 34 34 37 40 41 43 44 43 44 44 45 46 45 43 41 40 39 37 36 36 37 38 38 36 36 36 35 35 36 35 34 33 32 31 30 28 28 30 31 28 23 21 21 22 21 19 18 15 11 11 11 9
25 24 25 27 28 29 30 30 31 33 34 34 36 39 40 42 44 48 48 47 46 42 41 38 35 34 35 40 42 49 55 47 41 41 42 43 39 34 34 37 40 42 42 42 43 44 44 45 43 42 41 40 39 38 37 37 38 37 36 36 36 37 37 37 38 36 35 34 33 33 33 31 31 33 34 30 26 25 25 25 24 23 21 18 15 14 15 14
25 24 23 25 26 27 29 30 29 30 32 33 34 36 38 40 41 45 47 47 46 43 42 39 37 36 36 42 47 53 51 40 39 40 39 43 43 39 35 34 37 40 41 41 41 42 43 43 42 41 40 40 41 39 38 38 37 36 35 35 36 36 38 40 40 39 37 36 35 35 35 35 35 36 36 32 28 27 28 27 27 26 25 23 21 19 19 19
24 24 23 23 25 26 28 29 29 28 30 32 32 32 35 38 39 41 44 46 47 45 43 40 38 38 35 42 51 53 47 37 37 39 38 40 41 41 40 37 35 35 38 40 39 40 41 41 42 42 40 40 40 38 37 38 37 36 35 35 36 37 40 43 42 41 39 37 37 34 36 41 42 40 36 32 30 30 30 30 30 30 29 27 26 25 24 22
24 24 23 23 24 25 26 28 28 27 29 30 31 31 32 35 37 40 42 44 47 45 43 41 40 40 36 42 50 48 43 38 39 39 36 37 39 39 39 40 39 34 32 35 38 38 39 40 41 42 41 39 38 36 35 36 36 36 36 36 35 37 44 45 41 42 41 39 38 34 38 45 45 41 37 33 32 32 32 32 32 32 32 31 30 29 28 26
23 24 23 23 23 24 25 26 26 27 28 28 29 31 31 32 34 37 40 42 44 46 44 41 41 41 39 41 45 44 41 38 40 41 36 35 37 38 38 39 40 38 33 30 33 37 37 38 39 38 38 38 38 36 34 33 33 33 33 36 37 40 46 45 41 43 43 41 39 36 42 48 45 41 38 35 34 33 34 34 34 34 34 33 33 32 32 30
22 23 24 23 23 23 24 25 25 25 26 27 28 29 30 31 31 33 37 39 42 47 47 45 44 41 41 44 42 38 40 43 43 39 37 36 36 36 37 38 38 38 37 32 30 33 35 36 36 35 35 36 34 34 33 33 33 30 29 34 37 42 46 43 42 44 43 42 40 37 40 44 45 44 40 37 37 35 35 35 35 36 36 36 36 36 34 33
22 22 23 24 23 22 23 24 24 24 25 27 28 29 28 29 30 31 34 36 39 44 47 48 47 41 41 45 43 38 40 47 46 39 36 35 34 36 35 35 37 36 36 36 33 30 32 34 35 35 35 35 32 33 33 32 33 34 35 35 36 41 43 42 44 45 42 41 41 40 39 37 40 43 41 39 40 39 38 37 37 37 37 38 38 38 38 36
22 22 23 23 22 22 22 23 23 23 23 25 27 28 27 29 31 31 33 34 37 44 47 45 44 43 43 42 41 42 44 45 44 39 37 35 32 35 36 35 36 36 34 35 34 32 31 33 36 36 36 36 35 34 30 32 39 42 39 38 37 37 38 41 43 44 43 42 41 41 43 42 40 42 42 40 40 41 42 41 39 39 38 38 38 39 39 37
21 22 22 22 21 21 21 22 22 22 22 23 25 26 27 29 31 32 33 34 35 41 47 45 42 42 44 44 38 37 40 42 41 36 35 35 31 32 36 37 36 36 35 34 34 36 34 32 34 36 36 37 39 39 39 42 44 41 38 39 40 37 36 38 37 38 40 40 40 40 45 48 44 43 44 42 42 44 44 42 41 40 39 37 37 38 38 38
20 21 21 21 20 20 21 22 22 22 22 22 25 26 28 30 31 32 34 35 37 41 47 51 51 45 44 49 43 36 34 34 37 38 35 34 33 33 36 38 37 35 36 36 37 38 37 35 35 38 41 44 46 47 51 49 38 33 38 41 40 36 36 36 34 35 35 35 37 41 46 48 45 44 44 43 43 44 45 44 43 42 41 39 37 36 36 37
20 20 20 20 19 20 20 21 22 22 22 23 24 26 28 30 32 33 34 37 39 41 47 51 54 54 50 48 42 37 36 35 36 40 38 34 32 34 37 37 36 35 36 38 39 40 39 39 41 45 48 50 49 48 49 46 39 36 35 34 36 37 38 39 35 36 36 35 39 42 44 46 45 44 43 42 43 44 45 44 44 43 43 43 41 38 37 35
20 20 20 19 19 20 20 21 22 21 23 25 25 27 29 30 32 32 32 37 40 40 46 50 50 54 54 49 42 34 32 36 39 38 37 37 33 31 35 38 36 36 36 36 37 37 39 42 46 50 50 47 46 46 45 44 46 45 33 27 32 35 40 41 37 37 36 37 43 42 43 47 46 42 41 41 44 46 46 44 44 44 43 43 44 43 42 40
20 20 21 20 19 20 20 21 22 22 25 26 26 28 28 29 30 30 29 33 39 40 44 49 49 51 53 51 49 42 31 32 39 41 38 36 38 35 33 37 39 37 35 35 35 36 39 45 48 48 45 42 42 46 46 44 46 47 37 32 33 32 34 36 36 36 33 36 42 41 41 47 47 43 42 41 44 47 45 44 44 43 44 45 45 45 44 44
21 21 21 20 20 20 20 21 22 25 26 27 27 27 26 27 28 29 29 31 35 38 42 49 50 51 53 49 49 49 45 38 34 40 41 37 39 39 36 37 39 39 37 37 39 39 40 46 47 43 40 39 41 44 46 45 45 47 42 39 40 37 30 27 30 31 31 35 40 40 42 47 46 45 46 43 43 48 47 46 47 45 46 46 45 45 45 45
22 21 21 21 21 21 21 22 24 26 27 27 26 25 25 25 25 27 30 31 33 36 39 45 49 53 55 49 45 47 49 46 38 35 38 38 39 39 37 38 38 40 40 39 40 42 44 44 42 41 40 40 41 42 43 44 46 48 48 46 47 44 35 30 28 24 25 29 34 37 38 46 51 48 49 47 43 47 48 48 50 49 49 48 47 47 46 46
23 22 22 22 21 21 21 23 26 26 26 27 25 24 23 23 24 25 28 30 33 36 36 40 46 53 56 50 45 43 43 46 44 38 36 37 38 39 38 37 39 42 42 41 40 42 45 42 39 41 42 42 41 42 43 43 46 47 48 51 50 46 40 36 32 26 25 25 30 31 22 34 52 49 48 50 47 48 48 48 51 50 50 50 50 50 48 47
24 24 24 23 22 21 22 26 27 24 26 28 25 24 22 23 24 24 27 27 30 37 38 38 42 49 57 57 50 42 40 44 45 42 40 37 34 37 39 38 40 41 40 41 40 41 44 42 41 42 42 42 41 42 43 42 44 45 46 48 47 45 43 40 37 31 25 22 25 24 15 26 47 49 49 49 47 49 49 48 53 53 51 52 51 50 49 47
25 25 25 24 23 22 24 27 25 23 27 27 25 23 22 24 24 24 24 19 21 34 39 39 39 44 54 60 57 47 36 37 41 42 42 41 35 34 38 40 40 40 40 40 38 40 44 44 44 44 42 42 42 43 43 42 43 45 45 40 38 43 45 43 40 34 32 29 24 22 20 23 39 53 52 47 46 49 50 51 54 54 52 53 51 49 48 47
25 25 24 24 22 22 25 26 25 24 25 24 23 22 22 24 24 24 20 7 8 23 34 40 40 39 47 55 59 56 40 29 33 39 41 42 38 34 36 40 39 38 41 42 41 41 43 45 47 47 42 39 42 44 42 42 43 43 40 35 36 39 39 39 37 37 39 35 27 29 28 19 31 56 54 47 50 52 54 55 53 52 50 49 50 48 47 47
25 24 23 22 21 22 24 26 26 25 23 24 23 20 23 24 22 23 18 7 9 15 18 31 41 41 43 46 51 57 51 34 24 29 37 40 38 37 37 37 37 37 40 43 44 41 40 43 44 47 46 42 43 43 41 42 43 42 38 35 35 31 29 30 30 37 38 28 24 33 34 19 26 55 53 43 54 58 58 57 53 51 47 44 45 44 45 46
24 24 21 20 21 22 24 26 27 24 23 24 23 22 24 23 23 22 12 8 19 21 14 21 37 48 46 42 45 53 58 49 28 22 34 41 40 39 38 36 37 40 40 40 42 42 42 41 39 42 47 46 45 43 40 41 41 41 39 36 34 28 27 28 28 34 27 18 29 42 44 29 20 48 55 45 54 59 56 56 54 52 50 48 47 46 45 45
24 23 21 20 21 21 24 27 25 23 23 24 24 25 25 24 27 19 6 11 21 23 23 20 27 42 48 46 46 48 54 56 43 29 33 41 41 39 39 37 38 39 38 40 41 42 43 40 36 38 42 44 45 44 41 39 37 37 36 36 31 23 25 25 24 28 14 9 35 49 50 38 22 43 58 43 46 54 52 54 54 52 53 52 49 46 44 43
24 23 21 21 21 21 24 25 23 21 22 24 22 23 26 24 24 18 10 15 15 13 26 28 23 34 45 48 48 47 50 56 55 44 37 40 42 44 43 42 42 35 32 40 42 41 47 46 37 34 38 42 43 43 40 37 35 36 36 36 25 11 12 14 11 14 9 13 35 40 36 35 33 51 62 47 46 53 51 51 50 49 50 49 46 43 41 39
23 22 20 20 21 22 24 22 21 22 24 26 22 23 27 18 15 25 26 21 10 5 20 30 28 30 37 45 48 47 47 50 55 54 46 42 44 48 47 45 48 39 30 38 44 37 37 41 39 34 33 37 42 43 41 39 39 39 40 37 23 7 4 8 6 6 10 20 34 34 25 22 27 46 59 56 54 54 53 53 51 50 50 48 47 44 42 40
21 20 19 19 21 22 23 22 22 23 24 26 24 26 28 16 12 26 35 33 18 3 9 23 30 31 32 41 46 46 45 43 47 53 51 46 44 49 49 45 48 44 33 35 41 36 25 26 37 41 37 38 44 47 44 43 43 43 44 40 31 22 12 7 6 6 7 14 20 22 16 8 13 34 52 54 52 49 50 52 51 51 50 48 47 45 43 42
20 19 19 19 20 20 22 23 22 24 25 25 27 29 28 23 23 25 27 35 33 19 11 18 29 34 32 36 42 46 46 43 43 46 49 49 47 49 51 49 48 46 38 30 31 37 31 26 37 44 44 43 42 44 45 41 37 39 44 41 37 40 33 18 11 7 2 5 7 12 13 10 13 27 39 44 44 44 45 48 48 48 48 44 41 40 40 40
20 18 18 18 18 18 20 23 23 24 26 26 28 32 32 29 32 33 27 29 34 33 27 19 22 33 34 33 37 42 45 43 41 43 45 47 49 49 50 51 50 49 45 36 30 31 28 29 37 37 39 46 43 39 42 41 34 34 40 43 44 48 43 25 16 13 6 5 6 10 13 20 22 24 31 40 41 36 37 42 44 44 43 41 39 40 40 39
19 18 17 16 17 17 19 22 23 24 26 29 31 35 37 33 32 35 34 31 29 33 35 27 19 24 30 32 35 39 42 41 40 42 43 42 43 48 51 49 49 49 48 43 37 34 29 31 40 37 34 44 46 36 34 39 39 36 39 45 45 39 35 25 11 9 9 6 8 13 15 20 21 17 24 39 43 38 37 40 41 42 42 42 43 42 41 39
18 19 17 15 16 18 20 22 24 25 25 29 33 35 36 37 35 34 36 35 31 30 34 33 27 25 28 33 36 38 40 40 41 42 42 38 35 43 51 51 49 49 48 45 41 39 34 26 30 39 38 39 44 38 31 34 40 40 40 41 35 22 21 27 15 4 8 6 6 17 22 22 25 21 20 32 40 40 39 38 38 40 41 41 42 42 42 42
17 18 14 12 13 17 21 22 23 25 27 30 34 35 35 37 38 37 36 35 33 31 31 32 31 30 28 29 33 37 40 42 43 41 39 36 33 37 46 50 51 49 48 48 46 42 39 28 21 32 38 35 36 39 38 37 39 41 40 38 36 27 22 29 25 13 10 6 5 14 16 18 33 40 39 44 48 47 45 43 41 42 44 44 44 45 45 42
17 17 11 8 11 13 17 21 22 26 30 34 36 35 36 37 36 36 35 33 31 30 31 32 32 32 31 27 26 29 35 41 44 42 38 36 35 36 40 44 48 49 48 50 49 42 38 32 23 22 28 30 32 37 44 48 46 44 41 36 36 34 27 24 26 26 19 8 4 8 8 13 27 35 39 45 51 52 47 40 37 38 40 41 39 38 37 33
16 16 9 6 9 10 13 19 24 28 32 35 36 36 36 36 36 35 34 35 33 29 29 32 33 34 34 32 28 26 29 36 42 43 39 36 35 34 37 42 44 46 48 51 51 45 36 35 34 25 23 30 35 40 46 49 48 46 44 42 39 38 31 16 13 24 27 18 12 9 8 15 21 21 25 31 38 42 39 34 35 35 33 32 32 30 29 28
15 13 8 6 7 9 14 20 25 28 31 34 35 36 36 36 36 36 35 35 35 32 31 32 32 32 31 31 32 31 28 32 39 43 41 38 38 37 37 42 42 43 48 49 51 52 41 34 35 30 27 30 30 33 38 41 43 43 42 44 42 38 36 24 13 21 28 27 28 22 12 17 26 28 28 30 32 37 37 36 34 29 25 24 25 25 25 26
13 10 8 7 7 8 15 22 26 28 31 33 34 35 35 36 35 35 35 34 35 35 35 36 34 32 31 30 30 31 30 31 35 41 42 40 42 43 39 38 39 42 47 46 49 52 41 31 30 25 24 28 25 25 31 33 35 38 40 45 46 43 45 42 35 32 25 20 24 18 9 18 32 38 36 33 34 37 38 38 32 25 23 22 20 21 22 23
11 9 9 8 7 9 16 22 27 30 31 32 32 33 35 36 35 35 35 35 37 36 35 37 38 36 35 34 33 33 30 29 32 37 42 43 43 45 43 40 39 43 47 47 49 50 43 37 33 18 7 13 16 15 20 26 31 38 43 48 52 53 51 46 43 37 23 18 23 15 8 21 35 41 40 35 37 39 37 37 34 27 24 22 18 18 19 21
11 10 11 10 10 13 16 19 24 28 29 29 30 32 34 36 36 35 34 34 37 38 35 35 37 38 36 35 36 36 33 30 30 31 36 43 41 40 44 44 41 43 47 48 50 50 47 45 39 25 11 9 12 17 26 35 38 39 43 47 49 52 49 44 40 31 18 18 28 21 14 26 36 40 42 38 37 40 39 39 39 34 29 24 19 17 19 21
13 12 11 11 16 20 18 16 21 27 28 29 30 32 34 35 36 35 34 32 34 36 36 36 36 36 35 34 35 37 37 34 32 30 32 38 39 38 42 46 46 45 45 46 48 47 46 47 45 40 33 30 34 40 44 45 41 39 42 45 47 49 51 47 38 32 27 25 30 32 29 32 39 43 45 42 37 38 41 41 40 37 33 30 29 29 30 32
11 14 13 11 15 23 25 21 20 24 27 28 30 32 34 35 36 35 35 35 35 35 35 36 37 36 36 35 34 37 40 38 36 35 34 35 37 39 40 43 46 47 45 45 46 45 44 44 43 43 45 47 48 43 36 35 37 40 43 44 46 47 49 48 42 42 43 29 26 39 42 39 46 54 54 52 47 46 48 49 46 44 44 46 47 46 46 46
10 12 14 13 13 20 28 27 22 22 25 28 30 32 32 34 35 35 34 34 35 36 35 36 38 39 39 37 35 37 38 36 37 39 38 36 37 38 39 41 43 46 44 43 46 47 43 43 44 44 46 52 52 40 30 29 30 34 38 41 44 44 44 46 47 51 51 37 34 48 51 48 54 58 56 55 54 53 54 54 52 51 51 51 49 45 43 43
12 12 13 16 17 17 24 27 23 22 25 28 31 33 33 34 35 36 35 33 34 35 36 38 40 40 40 39 38 39 37 32 33 38 39 40 40 40 39 39 40 44 44 44 48 48 42 42 46 46 45 51 52 42 35 33 29 29 33 35 38 40 41 44 46 49 51 48 49 54 54 55 56 53 52 52 50 50 50 48 48 47 46 45 43 41 39 37
13 13 15 18 20 20 21 23 22 22 25 29 33 33 33 35 36 36 35 34 35 35 36 40 41 40 39 39 39 42 42 37 37 38 37 39 43 43 42 42 42 43 44 44 45 44 41 39 41 43 43 46 48 44 41 39 34 30 30 31 31 31 33 38 41 45 48 51 53 52 52 55 52 47 48 49 45 45 45 45 45 44 43 43 42 40 39 38
14 14 16 19 22 22 22 22 23 26 28 30 33 34 33 35 36 35 35 36 37 37 37 38 39 39 39 38 39 42 42 40 41 41 40 40 42 42 43 45 46 45 46 46 44 43 42 39 38 37 33 38 45 43 40 42 37 30 27 28 29 31 34 39 42 43 45 46 47 48 51 52 50 46 46 46 45 44 44 44 44 43 42 41 41 41 42 43
13 13 13 16 19 20 21 22 23 27 32 31 29 30 31 34 34 32 34 36 37 38 38 37 36 36 38 39 40 41 40 40 42 41 40 41 43 44 44 45 46 46 47 50 48 46 44 42 41 34 25 31 41 38 37 37 26 23 32 37 39 43 44 43 43 43 42 43 43 47 50 50 47 45 45 46 46 45 44 44 43 41 40 40 40 42 43 44
Wind_Direction
252 249 248 246 244 241 239 239 240 241 242 241 240 239 237 235 235 236 238 242 245 242 239 236 234 233 234 234 235 234 234 235 235 233 232 228 227 228 226 225 227 230 233 232 231 234 237 238 239 239 242 245 245 243 242 245 246 247 245 243 242 241 238 232 233 231 215 217 214 206 202 190 194 199 202 219 230 257 293 344 358 344 324 326 344 2 9 14
257 254 251 249 247 244 240 238 238 239 239 240 240 239 237 235 233 233 235 239 243 243 242 239 235 234 234 234 234 235 235 235 235 235 233 229 228 228 227 225 226 229 231 232 231 232 235 237 238 238 239 242 244 244 242 242 244 245 246 245 244 242 242 239 237 233 222 221 217 215 212 199 205 211 214 224 225 235 246 295 343 339 323 319 334 350 359 13
263 258 254 252 250 247 244 240 238 237 237 238 238 238 237 236 233 231 232 236 241 242 244 244 240 236 235 235 234 235 236 236 236 237 233 229 229 227 226 226 227 230 230 231 232 231 233 235 238 238 238 239 241 242 242 241 242 243 245 246 245 244 246 244 239 237 230 225 221 223 222 211 216 224 229 231 225 228 231 241 291 306 306 314 326 330 344 8
268 263 258 255 252 251 249 244 240 237 236 236 237 237 236 236 234 231 230 234 235 235 240 246 246 240 237 237 236 235 236 238 238 237 231 229 231 227 224 225 227 230 230 230 231 231 231 233 236 238 238 238 238 240 241 240 240 241 243 246 246 247 249 247 243 241 237 230 227 229 231 228 230 235 238 240 239 237 231 239 252 258 268 293 311 318 334 350
270 268 263 258 254 253 252 249 245 241 237 235 235 235 236 235 234 230 227 230 232 230 233 241 247 246 242 239 237 236 237 240 241 237 231 230 231 226 223 223 226 229 229 228 229 230 229 231 234 236 237 237 237 238 240 241 241 243 245 247 247 248 250 249 248 245 241 237 232 233 237 239 241 243 245 246 247 243 229 238 245 244 255 273 293 308 324 310
268 267 265 261 257 254 253 252 249 245 240 237 234 234 234 234 234 231 227 229 230 229 231 236 244 249 248 244 240 237 237 238 241 239 233 231 229 225 223 222 225 228 228 227 228 229 228 229 231 234 235 236 236 238 240 241 243 244 246 246 246 248 250 250 251 249 246 244 240 238 240 243 245 247 248 249 251 247 237 241 243 242 251 263 280 289 290 270
268 266 264 261 258 256 253 252 251 248 245 240 236 233 233 233 233 231 228 228 229 229 231 232 237 245 251 250 243 239 236 232 233 237 235 233 229 224 223 222 224 228 228 227 227 228 227 228 229 232 235 235 236 238 240 241 243 245 246 246 245 248 252 252 253 253 250 249 247 244 242 243 247 249 249 249 251 249 241 243 244 244 250 258 269 268 256 257
268 265 264 262 259 258 254 252 250 249 248 245 240 235 233 232 232 231 229 226 225 228 230 229 233 239 249 253 248 243 237 231 231 235 235 235 231 225 224 223 224 228 230 228 228 228 229 229 230 231 234 235 237 238 240 241 243 244 245 245 244 246 249 252 254 253 251 250 249 248 245 243 246 250 249 248 250 249 245 248 249 251 255 258 260 248 243 251
269 265 264 263 260 258 255 252 249 248 248 248 243 238 235 232 232 231 230 226 223 227 227 228 231 234 244 250 250 247 237 230 232 236 235 236 233 227 224 224 224 228 229 229 229 229 229 230 230 232 233 236 237 238 238 239 242 244 246 246 245 245 248 250 253 253 252 252 251 251 249 245 246 250 249 246 248 249 249 251 253 257 260 260 253 241 241 250
270 266 264 263 260 258 256 253 250 247 246 248 245 241 237 233 232 230 230 227 224 225 225 226 229 230 238 245 249 248 237 231 232 236 236 234 233 230 225 224 224 227 229 229 228 230 231 231 231 233 235 236 237 237 237 237 240 244 246 246 245 245 246 248 250 252 252 252 252 253 252 249 248 249 247 244 245 248 250 253 255 258 260 261 257 245 244 250
274 268 265 263 261 259 256 252 250 246 243 244 245 243 240 235 233 230 229 226 223 223 223 224 227 228 234 241 247 247 241 235 234 237 238 234 233 232 228 225 224 226 227 228 228 229 231 232 232 233 234 235 235 237 238 238 240 243 244 245 245 244 245 246 248 249 250 251 251 254 255 252 248 247 245 243 245 246 249 252 255 258 259 260 260 255 253 256
280 271 266 264 262 259 257 252 247 245 242 241 242 243 242 237 235 231 228 226 222 222 224 223 225 227 233 240 244 247 246 240 235 238 240 236 235 234 231 229 226 226 226 227 228 229 231 232 232 232 233 234 235 236 238 239 241 243 243 244 245 244 244 243 245 248 248 249 249 253 255 251 248 248 246 245 248 248 249 251 253 256 259 261 262 261 261 262
284 277 268 263 261 258 256 253 248 244 240 239 239 240 242 240 237 233 228 225 221 220 223 223 224 226 232 241 242 245 248 243 238 240 240 236 234 234 233 230 228 227 226 225 225 227 230 231 232 233 233 234 234 234 236 239 240 242 243 245 245 245 245 242 243 247 247 248 248 249 253 250 248 251 250 247 249 250 251 252 254 256 258 260 263 264 264 264
286 282 274 264 260 257 256 255 249 244 240 238 237 238 239 239 238 235 229 226 221 217 219 221 223 227 232 240 242 242 245 244 241 241 239 236 232 232 234 232 229 227 225 224 223 223 226 230 231 231 232 233 233 233 234 236 239 241 242 243 242 242 244 241 241 245 246 248 248 247 252 253 250 250 250 249 250 251 252 254 255 257 258 260 262 263 265 265
287 284 278 268 260 256 254 254 250 244 240 238 236 236 237 236 238 238 232 228 222 217 218 220 222 227 232 236 239 240 241 241 241 239 238 235 230 230 233 234 231 227 225 223 221 221 221 225 228 227 228 229 231 233 234 234 237 238 237 238 238 239 243 242 240 243 244 246 248 245 249 254 252 249 249 249 251 253 253 254 256 258 260 261 262 264 265 266
288 284 280 271 262 256 252 252 249 245 240 238 236 234 235 235 234 237 233 227 224 219 218 220 221 226 233 235 237 237 236 238 239 239 238 236 230 228 229 233 232 228 225 223 220 219 218 219 223 225 226 224 223 227 233 236 237 236 235 235 235 237 241 242 240 241 242 244 246 244 246 253 254 251 250 250 252 255 256 255 256 258 260 262 264 265 266 266
288 283 279 271 263 256 253 251 249 246 240 237 236 234 233 232 230 232 230 225 225 220 217 218 219 226 233 233 234 235 235 237 240 241 241 238 232 227 227 230 231 228 226 223 218 216 216 217 219 221 223 222 219 219 225 231 233 232 233 236 238 238 239 241 241 241 241 242 245 247 249 252 254 254 253 252 252 255 257 257 257 258 260 263 264 263 263 264
290 283 278 272 264 257 253 251 249 246 241 237 235 233 232 230 227 228 228 225 225 220 217 218 219 225 232 229 229 234 234 236 239 240 241 239 234 227 225 227 229 227 224 221 217 214 213 214 217 218 219 220 217 214 215 222 226 228 228 233 236 237 239 241 242 241 242 244 246 249 252 253 254 255 254 254 253 254 256 257 258 258 259 260 262 261 260 260
291 286 279 273 267 259 254 251 249 245 240 237 232 231 230 229 227 227 226 223 222 218 215 217 217 219 225 225 228 232 229 229 233 233 236 237 232 223 219 221 224 224 221 219 216 213 211 210 210 213 215 217 216 215 217 220 223 227 230 233 236 236 239 242 242 242 244 248 249 250 253 256 257 257 255 253 254 255 256 256 256 256 257 257 260 261 260 259
293 290 283 275 268 262 256 250 249 245 240 236 231 230 229 226 226 227 224 219 220 219 216 217 218 219 222 224 228 233 231 229 230 230 229 229 226 219 214 214 216 219 219 219 218 215 211 210 210 213 217 219 218 219 221 223 223 226 231 236 240 240 241 243 244 244 246 250 252 252 255 258 259 259 258 255 256 258 257 257 257 257 257 258 258 259 260 261
297 295 289 280 269 263 258 251 247 244 240 236 231 231 230 225 225 228 225 221 221 221 219 218 220 222 223 225 229 232 232 231 232 231 228 226 224 217 210 209 209 212 216 217 219 217 213 214 217 221 224 224 222 222 224 224 224 226 228 233 240 244 246 247 248 248 248 251 253 254 256 257 258 259 258 254 252 254 256 257 258 258 258 259 259 258 259 261
297 297 293 286 273 262 257 253 245 240 241 238 232 231 232 228 228 231 231 229 226 225 223 219 220 222 220 224 230 230 231 232 231 230 228 226 224 220 214 210 210 211 213 212 214 214 214 218 223 226 228 228 225 224 225 226 227 228 229 232 237 242 247 249 251 251 249 251 255 257 259 258 259 260 260 257 252 251 253 255 255 256 256 256 257 258 258 260
296 297 296 290 279 265 255 251 245 240 240 239 235 233 234 230 230 232 233 235 232 229 226 222 223 223 218 221 229 230 232 234 232 228 227 225 223 222 219 213 212 212 209 208 209 209 213 220 224 225 225 227 227 225 226 229 231 232 232 232 235 237 243 248 251 253 251 252 256 261 264 263 261 260 258 257 255 252 252 254 254 254 254 254 255 257 258 259
295 296 298 293 283 270 257 249 244 241 240 240 237 236 237 233 232 234 234 239 239 233 229 226 226 225 219 218 225 230 232 234 237 233 227 227 224 218 217 215 213 212 210 209 211 214 218 222 223 223 222 224 224 224 225 228 232 234 233 233 234 235 238 245 250 255 256 254 255 260 269 267 261 259 259 257 256 253 251 252 254 253 254 255 255 256 257 259
297 296 297 294 286 271 257 248 241 240 240 240 238 236 236 233 231 234 235 240 244 239 232 229 229 227 222 219 222 229 233 234 237 236 229 230 226 215 213 215 213 212 213 212 213 218 222 224 223 222 222 223 222 222 223 226 230 234 235 235 236 236 237 242 246 251 255 255 254 254 265 269 262 261 262 260 258 256 252 252 253 253 254 255 255 255 257 259
298 297 294 294 288 271 256 248 243 241 241 241 239 234 233 232 230 232 232 236 244 241 233 230 231 226 222 220 219 223 233 236 237 237 232 230 229 221 214 211 212 214 216 214 214 219 222 221 222 223 221 220 221 222 223 225 228 232 237 238 238 238 237 239 242 244 247 251 255 250 245 266 269 265 262 263 262 260 257 254 253 253 254 255 254 255 256 258
297 295 292 290 286 270 255 250 247 242 241 243 239 234 231 229 229 231 231 234 243 242 236 230 228 224 220 220 218 217 226 236 235 234 233 229 230 228 218 211 211 214 215 212 212 219 222 218 218 221 222 220 218 219 222 223 225 231 238 240 239 238 238 238 239 241 245 250 255 254 247 260 269 265 262 264 265 264 261 256 254 254 254 254 254 254 255 257
297 294 289 284 280 269 256 251 247 241 242 243 240 236 231 227 228 227 226 225 220 231 235 230 224 221 221 222 221 218 219 231 232 227 229 230 228 225 218 216 218 219 215 210 210 218 223 222 218 217 219 220 221 222 224 222 225 232 237 239 240 241 242 240 238 240 245 250 251 249 246 249 263 262 261 265 264 262 261 258 256 256 255 253 253 254 255 257
300 297 289 280 273 262 251 246 243 238 238 238 235 232 228 227 228 225 226 231 214 219 228 221 216 218 220 221 223 221 219 224 230 224 224 227 225 221 217 216 220 222 216 212 215 219 224 227 225 220 219 221 224 226 227 225 227 233 235 238 242 243 245 243 240 240 242 245 243 241 237 231 259 260 256 257 259 258 259 260 260 259 258 257 256 257 258 259
304 301 294 278 265 256 247 243 241 236 234 234 230 224 223 222 219 220 226 228 228 235 232 202 204 215 217 215 219 220 218 220 223 217 217 220 221 221 219 217 216 218 215 213 219 222 223 228 228 224 222 225 227 227 227 229 231 234 233 234 238 240 241 243 241 238 237 239 239 238 233 225 250 260 253 248 253 257 261 263 264 264 264 264 264 265 266 265
304 301 293 275 262 254 246 243 240 236 232 232 227 219 217 216 212 215 230 226 228 237 232 207 195 209 216 214 214 216 216 219 222 214 207 210 211 210 211 212 210 210 211 212 218 222 223 226 228 226 225 225 227 227 226 227 227 230 232 231 233 236 238 243 241 234 226 229 239 239 234 225 229 253 254 253 255 258 262 264 266 267 267 267 269 271 271 271
302 296 288 275 262 250 244 243 238 233 231 228 226 216 210 210 211 218 230 221 222 231 230 224 205 206 215 215 215 216 213 215 220 220 212 205 203 203 205 207 203 197 200 207 214 221 222 223 225 227 227 222 222 223 223 224 221 223 227 225 223 218 223 231 229 231 232 239 242 240 234 228 233 248 254 257 258 259 261 264 266 268 268 269 271 273 275 275
298 290 284 274 262 249 243 242 233 228 227 224 222 215 211 209 212 221 223 212 194 193 220 224 219 213 215 213 212 216 214 212 216 220 221 215 205 205 208 209 207 199 194 204 210 216 222 226 225 224 227 224 220 218 216 218 217 216 217 215 210 192 203 220 206 228 241 242 246 243 235 228 232 248 256 257 257 260 261 264 266 267 270 271 272 274 275 274
299 290 282 268 259 249 240 239 231 225 225 222 217 210 208 214 220 222 224 221 217 222 204 212 218 218 217 215 213 213 211 211 215 217 222 219 205 201 204 207 208 203 198 202 206 207 213 225 224 221 223 225 223 222 220 219 217 216 218 216 213 212 213 216 213 219 235 246 247 236 227 200 210 246 259 260 261 263 261 261 264 267 269 271 272 273 271 269
302 291 282 266 257 251 239 236 230 224 222 218 214 210 205 209 219 224 227 225 227 240 234 212 211 212 215 218 217 217 213 211 213 215 218 216 206 202 202 204 207 204 199 198 203 208 212 222 225 221 222 225 226 226 224 219 217 219 220 218 218 220 222 228 241 236 231 277 244 206 214 227 231 248 257 261 264 262 260 260 261 262 265 267 269 268 267 269
302 291 281 269 260 253 241 235 230 224 221 216 213 216 214 212 216 223 227 226 227 233 235 230 214 206 210 215 214 217 217 213 212 213 215 215 212 210 207 206 208 206 203 201 201 204 210 224 228 223 222 225 227 229 223 217 218 218 216 217 221 225 225 229 250 255 261 293 245 207 222 238 245 250 249 253 257 256 256 258 256 257 260 265 268 267 270 274
298 290 279 270 261 250 239 233 228 223 221 217 214 216 220 220 218 223 227 227 228 231 232 237 231 209 207 213 214 215 214 213 213 213 213 213 214 214 211 210 212 211 209 208 207 209 213 223 228 224 222 224 226 228 225 223 224 218 215 220 224 226 226 225 246 262 247 262 246 228 230 231 235 243 244 249 252 250 252 256 259 261 263 266 269 269 272 275
297 292 285 274 259 244 235 229 226 224 220 219 220 220 221 223 223 225 229 230 231 231 230 232 236 230 218 213 215 216 213 210 211 213 212 211 214 216 212 210 212 214 216 214 212 216 218 222 231 229 226 225 223 221 220 224 225 221 225 228 221 214 217 217 219 236 229 236 248 241 242 237 233 234 241 249 251 252 255 258 262 266 267 270 272 272 274 276
297 297 296 276 256 239 229 225 222 221 217 216 222 224 222 223 225 226 228 230 233 233 233 232 232 234 229 216 212 213 213 213 213 213 214 213 215 218 214 213 213 212 215 214 212 215 218 219 230 230 228 226 220 216 213 216 218 219 225 227 221 217 218 216 217 224 228 227 237 242 243 241 242 244 248 253 254 257 263 267 268 270 272 274 276 276 277 279
303 303 303 273 254 240 227 220 215 216 217 218 222 225 225 224 226 227 225 226 230 230 233 236 233 233 235 230 219 212 212 216 217 214 215 215 217 220 219 218 217 214 212 211 211 214 214 215 223 228 222 217 214 216 218 219 215 211 214 215 215 217 219 222 225 225 229 234 237 245 245 240 244 248 252 255 256 260 268 274 276 275 276 276 277 278 277 275
312 305 297 266 251 235 216 208 209 214 219 223 225 226 228 229 227 227 226 227 230 229 230 236 237 237 241 243 240 231 220 218 219 217 216 215 214 218 220 220 222 221 213 206 206 209 210 214 220 219 206 207 218 225 227 226 218 212 213 213 214 214 212 217 230 223 225 230 230 239 253 245 243 247 254 258 261 265 270 276 278 278 278 277 276 277 274 269
318 307 288 264 250 231 209 204 210 216 220 226 228 227 229 231 230 229 228 230 234 234 232 236 239 240 243 246 247 245 235 226 223 220 220 219 215 216 220 221 224 224 217 211 209 208 209 212 216 217 214 217 224 224 225 228 223 219 219 219 219 218 213 213 218 218 222 226 232 241 255 253 250 251 256 260 263 266 270 274 277 277 276 276 275 273 269 265
316 304 275 255 251 235 214 208 212 218 222 228 230 229 230 231 233 232 229 228 232 234 233 236 239 242 243 244 247 247 242 239 234 225 223 224 222 222 223 221 221 220 219 220 215 207 206 210 210 212 220 221 221 222 226 230 225 220 222 224 225 223 221 221 223 226 226 220 224 236 252 251 251 254 256 257 258 262 266 270 270 269 271 273 270 264 258 256
306 286 259 252 254 241 223 215 217 221 225 229 230 230 231 232 234 236 232 228 229 233 233 234 238 242 242 242 246 248 245 244 244 234 225 224 226 227 225 223 222 221 220 223 221 211 207 210 207 194 192 216 220 225 227 227 223 221 223 226 228 228 227 226 226 231 237 228 223 227 245 247 250 254 253 252 254 256 260 263 263 264 269 267 259 252 246 243
296 270 246 236 238 245 242 230 226 228 230 230 231 232 232 233 234 235 235 232 232 235 237 237 239 242 244 243 244 248 247 245 251 248 232 226 229 230 227 223 223 226 227 228 227 218 211 208 205 196 181 190 205 216 221 222 221 221 223 225 227 227 225 224 225 227 231 230 227 227 239 246 248 252 253 252 254 256 256 257 259 261 261 254 242 236 234 236
288 266 246 221 219 231 244 243 233 233 235 233 233 233 233 234 235 235 235 234 233 236 238 239 241 243 245 245 244 248 249 247 253 255 240 229 228 230 229 226 223 226 230 229 226 220 215 213 211 209 208 212 217 223 227 225 218 217 221 224 225 226 225 223 222 224 227 231 233 234 239 245 246 249 252 252 252 256 257 257 257 255 254 253 253 255 256 257
280 257 248 234 221 223 232 242 237 234 237 236 235 235 234 235 236 236 236 235 235 237 237 240 242 243 245 245 245 248 250 249 252 253 249 239 230 228 229 227 225 226 228 227 223 219 216 216 216 215 219 224 227 229 230 227 223 223 225 225 225 225 224 222 221 227 230 230 237 240 240 243 247 250 254 255 254 255 258 259 259 259 262 267 270 271 271 270
294 260 247 245 240 225 225 237 245 239 237 236 236 237 237 237 236 235 236 236 235 236 236 239 240 240 242 243 244 248 251 251 253 253 253 248 237 229 227 226 226 226 226 226 223 218 216 218 220 220 223 229 231 231 232 233 234 232 230 231 231 227 223 222 224 229 230 228 237 244 243 244 249 254 257 259 259 260 262 264 266 268 270 272 274 275 275 275
308 274 253 246 249 241 233 241 251 248 241 239 239 239 238 239 239 237 238 238 235 234 235 238 240 240 241 241 241 245 245 245 250 253 253 249 241 233 229 226 225 225 224 226 225 220 217 221 224 222 224 230 231 231 233 237 239 237 234 236 236 233 231 229 231 234 234 233 238 244 247 248 251 257 260 261 262 265 267 268 269 270 270 272 275 278 280 281
315 285 265 254 252 252 250 251 251 249 244 239 239 241 239 240 242 242 241 238 236 236 235 237 240 241 241 240 241 243 245 244 247 250 251 246 239 233 229 229 230 228 225 226 227 222 218 220 222 219 222 230 232 231 233 236 238 240 238 237 237 236 235 235 237 238 236 236 239 242 246 250 254 257 259 261 264 265 266 268 268 269 271 274 276 278 280 281
315 300 282 271 263 258 257 256 254 253 250 242 239 242 242 241 243 244 245 243 242 242 240 241 244 244 242 243 243 245 248 248 247 248 250 249 246 243 239 237 237 232 225 225 227 226 223 223 222 218 219 228 230 230 232 234 236 237 232 231 233 233 234 235 238 239 236 237 240 239 242 250 256 257 259 262 264 264 265 267 269 271 273 275 277 278 279 280
299 297 290 281 274 263 256 258 257 254 255 253 250 249 247 247 247 247 248 249 248 245 245 248 251 250 248 248 247 248 250 250 249 249 252 252 252 251 247 242 240 236 231 227 225 225 225 225 225 220 218 229 231 231 233 232 231 228 228 233 237 237 238 239 239 242 243 241 240 240 245 254 261 262 262 263 263 264 266 268 270 273 275 278 279 279 279 281
Height
3039 3040 3041 3042 3044 3045 3047 3049 3051 3053 3055 3057 3059 3062 3065 3068 3071 3073 3075 3077 3079 3080 3082 3085 3087 3090 3091 3093 3095 3097 3098 3100 3103 3104 3105 3116 3123 3123 3125 3128 3130 3130 3130 3134 3136 3137 3139 3140 3142 3144 3145 3147 3148 3151 3153 3154 3154 3155 3156 3157 3157 3158 3160 3162 3163 3164 3165 3165 3165 3165 3166 3167 3167 3168 3168 3168 3169 3170 3171 3171 3171 3171 3172 3172 3172 3172 3172 3172
3035 3036 3037 3038 3038 3040 3042 3044 3046 3048 3050 3053 3055 3057 3060 3063 3067 3069 3072 3074 3075 3077 3079 3080 3083 3086 3088 3090 3091 3093 3094 3096 3097 3098 3105 3117 3118 3117 3121 3126 3127 3127 3128 3131 3133 3135 3136 3137 3139 3141 3143 3144 3146 3148 3150 3151 3152 3153 3153 3154 3155 3157 3159 3161 3163 3163 3164 3164 3165 3165 3165 3166 3166 3166 3167 3167 3168 3169 3170 3171 3171 3171 3171 3171 3172 3172 3172 3172
3030 3031 3032 3033 3034 3036 3037 3039 3041 3043 3046 3048 3050 3053 3056 3059 3062 3065 3068 3070 3073 3075 3076 3077 3079 3082 3084 3086 3087 3089 3091 3092 3092 3095 3107 3114 3110 3113 3119 3122 3124 3124 3126 3128 3130 3132 3133 3134 3135 3138 3140 3142 3143 3145 3147 3148 3149 3150 3151 3151 3153 3156 3157 3159 3161 3162 3163 3164 3164 3164 3164 3165 3165 3165 3166 3166 3167 3168 3169 3170 3170 3170 3171 3171 3171 3172 3172 3172
3026 3027 3028 3029 3030 3031 3033 3035 3036 3038 3041 3043 3046 3049 3051 3054 3057 3061 3064 3067 3069 3072 3074 3075 3076 3077 3080 3082 3084 3086 3087 3087 3087 3094 3106 3106 3105 3112 3117 3119 3121 3120 3122 3125 3126 3128 3130 3132 3132 3134 3136 3139 3141 3142 3143 3145 3147 3147 3147 3149 3152 3155 3155 3157 3159 3160 3161 3162 3163 3163 3163 3163 3163 3164 3164 3165 3166 3167 3168 3169 3169 3170 3170 3170 3170 3171 3171 3172
3023 3023 3024 3025 3026 3028 3029 3030 3032 3034 3036 3038 3041 3043 3047 3050 3053 3057 3060 3063 3066 3069 3071 3073 3073 3075 3076 3077 3080 3082 3084 3084 3084 3092 3101 3100 3103 3110 3113 3115 3115 3115 3117 3120 3122 3124 3127 3129 3129 3131 3132 3135 3137 3139 3140 3143 3145 3144 3145 3148 3151 3152 3152 3155 3157 3158 3159 3160 3161 3161 3161 3162 3162 3162 3163 3164 3164 3166 3167 3167 3168 3169 3169 3169 3170 3170 3171 3171
3020 3020 3021 3022 3022 3024 3025 3026 3028 3029 3031 3034 3036 3039 3042 3045 3048 3052 3056 3059 3062 3065 3068 3070 3072 3073 3073 3073 3075 3077 3079 3081 3082 3088 3094 3096 3101 3106 3108 3110 3111 3110 3112 3115 3118 3120 3124 3125 3126 3127 3129 3132 3134 3135 3138 3141 3142 3142 3143 3147 3149 3149 3150 3152 3154 3155 3157 3158 3159 3160 3160 3160 3161 3161 3161 3162 3163 3165 3166 3166 3167 3167 3168 3169 3169 3170 3170 3171
3016 3017 3017 3018 3019 3020 3021 3023 3024 3025 3027 3029 3031 3034 3037 3040 3044 3047 3052 3056 3058 3062 3064 3067 3070 3071 3071 3069 3071 3072 3072 3076 3081 3084 3089 3092 3097 3102 3104 3106 3107 3106 3108 3112 3115 3117 3121 3122 3123 3125 3126 3129 3131 3133 3136 3139 3139 3139 3141 3144 3147 3148 3148 3150 3151 3153 3155 3156 3157 3158 3158 3158 3159 3159 3159 3160 3162 3164 3164 3164 3165 3166 3167 3168 3168 3169 3169 3170
3013 3013 3014 3015 3016 3017 3018 3019 3020 3022 3023 3025 3028 3030 3033 3036 3039 3043 3047 3051 3054 3058 3060 3064 3067 3068 3068 3065 3067 3066 3064 3073 3081 3082 3086 3089 3093 3098 3100 3103 3104 3104 3106 3110 3113 3116 3118 3119 3121 3123 3124 3126 3129 3132 3134 3136 3135 3135 3138 3142 3145 3145 3146 3148 3148 3149 3151 3153 3154 3154 3155 3157 3157 3157 3157 3158 3161 3162 3162 3163 3163 3164 3165 3166 3167 3168 3168 3169
3010 3010 3011 3011 3012 3013 3014 3015 3017 3018 3020 3022 3024 3026 3029 3031 3035 3038 3042 3047 3051 3054 3057 3061 3063 3066 3065 3062 3063 3059 3059 3073 3081 3080 3083 3087 3090 3094 3096 3099 3100 3101 3103 3107 3111 3113 3114 3116 3119 3121 3123 3125 3127 3129 3131 3132 3131 3132 3135 3139 3142 3143 3144 3145 3144 3146 3148 3149 3150 3150 3152 3154 3155 3154 3154 3157 3160 3160 3161 3161 3162 3163 3164 3165 3166 3167 3167 3168
3007 3006 3007 3008 3009 3009 3010 3012 3013 3015 3016 3018 3020 3023 3025 3027 3030 3034 3037 3042 3046 3050 3054 3057 3060 3063 3061 3059 3057 3053 3057 3072 3078 3077 3079 3082 3086 3090 3092 3095 3097 3098 3101 3104 3107 3109 3111 3114 3117 3120 3121 3123 3124 3126 3128 3129 3129 3130 3133 3135 3138 3140 3141 3141 3140 3142 3144 3145 3147 3147 3149 3151 3152 3150 3150 3154 3158 3158 3159 3159 3160 3161 3162 3163 3164 3165 3166 3166
3005 3004 3003 3004 3005 3006 3007 3009 3009 3011 3013 3014 3017 3019 3021 3024 3026 3029 3033 3037 3042 3046 3050 3053 3057 3058 3057 3055 3051 3048 3057 3070 3075 3074 3075 3079 3083 3086 3089 3091 3093 3095 3098 3101 3105 3107 3109 3112 3115 3117 3118 3119 3120 3122 3124 3125 3127 3128 3130 3132 3133 3136 3136 3136 3136 3138 3140 3142 3143 3145 3145 3146 3145 3144 3147 3153 3156 3156 3157 3157 3158 3159 3160 3161 3162 3163 3163 3164
3002 3001 3000 3001 3002 3003 3004 3005 3006 3008 3009 3011 3013 3015 3018 3020 3023 3025 3029 3032 3037 3042 3046 3050 3053 3053 3055 3050 3044 3047 3057 3068 3072 3070 3072 3076 3079 3082 3085 3088 3090 3093 3095 3099 3102 3105 3107 3109 3112 3113 3114 3115 3117 3120 3121 3123 3125 3126 3128 3128 3130 3132 3131 3130 3133 3133 3136 3138 3140 3143 3141 3138 3138 3140 3146 3152 3153 3153 3154 3154 3155 3156 3157 3158 3159 3160 3161 3162
2999 2999 2998 2998 2998 3000 3001 3003 3004 3004 3006 3008 3010 3012 3014 3017 3020 3022 3025 3028 3033 3038 3042 3046 3048 3049 3050 3043 3041 3048 3056 3065 3067 3064 3068 3072 3075 3079 3081 3083 3087 3089 3092 3096 3099 3102 3104 3106 3108 3109 3111 3112 3114 3117 3118 3120 3121 3122 3124 3125 3127 3128 3124 3126 3131 3130 3132 3133 3137 3140 3133 3130 3135 3139 3145 3150 3150 3150 3151 3151 3153 3154 3155 3156 3157 3158 3159 3160
2997 2996 2996 2996 2996 2996 2998 3000 3001 3001 3003 3005 3007 3009 3011 3014 3016 3018 3021 3024 3029 3034 3038 3042 3044 3044 3044 3039 3041 3048 3054 3060 3059 3059 3065 3068 3072 3075 3076 3079 3082 3086 3090 3093 3095 3098 3100 3103 3105 3106 3108 3109 3111 3114 3115 3117 3118 3119 3121 3121 3123 3122 3117 3123 3129 3126 3129 3130 3133 3137 3127 3125 3134 3138 3142 3146 3146 3147 3147 3148 3150 3151 3152 3152 3153 3154 3156 3157
2994 2994 2994 2993 2993 2994 2995 2997 2998 2999 3000 3002 3004 3006 3008 3011 3013 3016 3018 3021 3025 3029 3034 3037 3038 3039 3039 3036 3038 3046 3051 3051 3051 3056 3061 3064 3069 3072 3073 3075 3078 3083 3086 3089 3092 3094 3097 3099 3101 3102 3103 3106 3109 3111 3112 3114 3114 3116 3117 3115 3116 3115 3113 3121 3125 3123 3126 3127 3130 3132 3122 3120 3129 3135 3139 3143 3143 3143 3144 3146 3147 3147 3148 3149 3150 3151 3152 3154
2991 2992 2992 2991 2991 2991 2992 2994 2995 2996 2997 2999 3001 3003 3005 3007 3010 3012 3015 3018 3021 3024 3028 3030 3032 3036 3034 3032 3036 3042 3044 3043 3047 3054 3058 3061 3066 3069 3071 3072 3074 3079 3082 3085 3088 3091 3093 3095 3097 3098 3099 3102 3106 3107 3110 3111 3111 3112 3111 3109 3110 3111 3112 3117 3119 3120 3124 3125 3125 3124 3119 3118 3125 3131 3137 3140 3140 3140 3140 3142 3144 3144 3145 3146 3147 3148 3149 3150
2989 2989 2989 2989 2989 2989 2989 2991 2992 2994 2995 2997 2999 3001 3003 3004 3006 3009 3011 3014 3016 3020 3023 3025 3031 3033 3029 3028 3032 3035 3038 3041 3046 3052 3055 3059 3062 3066 3068 3069 3071 3075 3078 3081 3084 3087 3089 3090 3092 3093 3095 3098 3101 3105 3107 3105 3102 3103 3105 3106 3107 3108 3110 3112 3114 3117 3121 3120 3120 3120 3117 3117 3122 3128 3133 3136 3137 3137 3136 3137 3140 3141 3142 3143 3143 3144 3145 3147
2987 2987 2987 2987 2987 2987 2987 2988 2989 2991 2992 2994 2996 2998 3000 3001 3003 3005 3007 3010 3013 3017 3019 3020 3026 3026 3022 3024 3027 3029 3035 3040 3045 3050 3052 3054 3058 3062 3064 3066 3067 3071 3074 3077 3079 3083 3085 3086 3088 3089 3091 3093 3095 3098 3096 3093 3093 3098 3102 3102 3103 3105 3107 3108 3111 3115 3116 3116 3117 3117 3114 3114 3119 3125 3129 3132 3133 3132 3132 3133 3135 3137 3138 3139 3139 3140 3142 3143
2984 2984 2985 2985 2984 2984 2985 2986 2987 2988 2990 2992 2993 2995 2996 2997 2999 3000 3003 3006 3008 3009 3011 3013 3016 3017 3018 3021 3024 3027 3033 3037 3041 3045 3047 3048 3053 3056 3059 3062 3063 3066 3070 3071 3074 3077 3079 3081 3082 3083 3083 3084 3086 3087 3086 3089 3095 3099 3100 3099 3101 3104 3105 3105 3108 3112 3114 3115 3114 3114 3111 3112 3116 3120 3124 3128 3128 3128 3128 3129 3131 3132 3133 3134 3135 3136 3138 3139
2982 2982 2982 2982 2982 2982 2983 2984 2985 2986 2988 2988 2990 2992 2992 2993 2995 2996 2999 3001 3001 3004 3007 3009 3011 3014 3017 3019 3021 3025 3030 3033 3035 3038 3041 3044 3047 3050 3054 3057 3059 3062 3064 3066 3069 3072 3075 3075 3073 3073 3075 3078 3082 3084 3087 3093 3097 3098 3098 3099 3101 3103 3102 3103 3106 3109 3113 3112 3110 3111 3110 3110 3113 3115 3119 3124 3124 3123 3123 3125 3126 3128 3129 3130 3131 3133 3134 3135
2981 2980 2980 2980 2980 2980 2981 2982 2983 2984 2985 2985 2987 2988 2988 2990 2992 2993 2996 2998 2999 3002 3004 3007 3009 3012 3015 3018 3020 3023 3027 3028 3031 3034 3038 3042 3044 3046 3050 3053 3055 3056 3059 3064 3067 3069 3072 3069 3067 3069 3074 3079 3083 3085 3088 3092 3093 3094 3097 3099 3099 3099 3099 3102 3105 3107 3111 3109 3106 3108 3107 3105 3108 3110 3114 3118 3119 3117 3118 3120 3122 3123 3125 3125 3127 3128 3130 3132
2979 2978 2978 2978 2978 2978 2979 2979 2981 2982 2981 2982 2984 2984 2986 2990 2991 2993 2996 2996 2997 2999 3001 3004 3006 3007 3012 3016 3016 3020 3023 3024 3027 3030 3035 3039 3040 3042 3046 3050 3052 3053 3058 3062 3063 3066 3066 3062 3063 3070 3076 3080 3083 3084 3086 3088 3090 3092 3095 3096 3095 3095 3097 3100 3102 3104 3108 3106 3103 3104 3103 3101 3104 3106 3108 3111 3112 3113 3114 3116 3117 3119 3120 3120 3121 3123 3125 3127
2976 2976 2976 2975 2975 2976 2976 2977 2978 2978 2978 2979 2981 2983 2985 2988 2990 2992 2993 2993 2994 2996 2997 3000 3001 3003 3008 3011 3013 3016 3018 3020 3023 3026 3032 3034 3035 3038 3043 3045 3049 3052 3054 3055 3057 3059 3057 3057 3063 3071 3075 3078 3079 3081 3084 3086 3088 3088 3091 3092 3091 3093 3096 3097 3099 3102 3104 3105 3102 3102 3100 3096 3099 3101 3101 3104 3107 3108 3111 3111 3112 3113 3114 3115 3117 3118 3120 3122
2974 2974 2973 2973 2973 2973 2974 2974 2974 2975 2975 2977 2979 2981 2984 2987 2990 2991 2991 2991 2990 2991 2994 2996 2999 3001 3003 3008 3011 3012 3014 3017 3019 3023 3028 3030 3031 3035 3038 3042 3046 3048 3049 3052 3055 3055 3054 3058 3065 3069 3071 3073 3075 3078 3081 3083 3083 3083 3086 3087 3087 3091 3095 3096 3099 3101 3102 3102 3101 3102 3098 3090 3092 3094 3094 3098 3102 3103 3106 3107 3106 3108 3109 3111 3113 3114 3116 3118
2971 2971 2970 2971 2970 2971 2971 2971 2971 2972 2973 2975 2977 2980 2983 2986 2988 2989 2990 2989 2986 2986 2990 2992 2994 2995 3000 3006 3008 3009 3012 3013 3015 3020 3025 3027 3029 3031 3034 3039 3042 3043 3046 3050 3053 3052 3053 3059 3063 3065 3066 3068 3071 3073 3076 3078 3079 3079 3080 3082 3085 3090 3094 3096 3098 3100 3100 3098 3098 3102 3098 3085 3084 3089 3089 3092 3096 3096 3101 3103 3101 3103 3105 3107 3108 3109 3112 3114
2969 2968 2968 2968 2968 2968 2968 2967 2968 2971 2971 2973 2976 2979 2982 2983 2986 2987 2988 2986 2982 2981 2985 2988 2989 2990 2995 2999 3001 3007 3009 3007 3011 3018 3021 3025 3028 3029 3031 3033 3036 3040 3044 3048 3050 3049 3050 3056 3059 3060 3062 3064 3066 3068 3071 3074 3076 3074 3075 3080 3085 3089 3092 3093 3095 3097 3097 3096 3096 3101 3100 3087 3079 3082 3084 3087 3089 3089 3094 3096 3095 3097 3100 3101 3103 3105 3108 3110
2966 2966 2965 2965 2965 2964 2964 2964 2967 2969 2970 2971 2975 2978 2980 2981 2984 2985 2986 2985 2978 2976 2980 2983 2985 2987 2990 2993 2998 3004 3003 3002 3009 3014 3016 3021 3025 3026 3028 3029 3032 3036 3040 3045 3045 3042 3045 3052 3054 3055 3058 3059 3060 3061 3066 3072 3072 3070 3074 3079 3083 3086 3087 3089 3093 3094 3093 3095 3095 3096 3100 3092 3076 3072 3078 3082 3082 3082 3084 3087 3088 3091 3094 3096 3099 3102 3104 3106
2964 2963 2962 2962 2962 2961 2961 2962 2964 2967 2968 2970 2973 2976 2978 2979 2982 2983 2984 2980 2973 2971 2974 2977 2982 2986 2987 2990 2994 2997 2999 3001 3005 3008 3013 3019 3021 3023 3025 3026 3029 3032 3035 3038 3037 3039 3044 3046 3047 3051 3053 3053 3055 3059 3065 3069 3068 3069 3075 3077 3080 3083 3083 3087 3091 3091 3092 3093 3091 3092 3097 3093 3074 3065 3073 3077 3075 3075 3074 3078 3082 3085 3089 3092 3095 3098 3100 3103
2961 2960 2959 2959 2959 2958 2958 2959 2961 2964 2966 2968 2971 2974 2976 2978 2980 2981 2980 2975 2969 2967 2968 2971 2977 2981 2981 2985 2989 2993 2999 3002 3001 3005 3012 3014 3015 3019 3020 3023 3028 3030 3032 3033 3035 3040 3043 3043 3046 3049 3049 3050 3054 3059 3063 3065 3065 3070 3074 3075 3078 3081 3081 3085 3086 3087 3091 3086 3083 3087 3091 3088 3071 3058 3067 3072 3067 3066 3068 3072 3078 3081 3085 3088 3091 3094 3097 3099
2958 2957 2956 2956 2955 2956 2956 2956 2958 2961 2965 2966 2968 2971 2973 2975 2977 2977 2974 2969 2967 2967 2967 2968 2970 2972 2976 2981 2984 2988 2995 2998 2999 3004 3006 3008 3012 3015 3018 3022 3025 3027 3029 3033 3035 3038 3040 3041 3043 3044 3046 3049 3054 3057 3060 3061 3064 3069 3071 3073 3076 3078 3079 3082 3081 3084 3086 3076 3074 3078 3080 3083 3070 3051 3056 3065 3061 3063 3067 3070 3074 3077 3080 3083 3086 3089 3091 3094
2955 2954 2953 2953 2953 2953 2953 2954 2956 2960 2963 2964 2966 2968 2970 2972 2973 2972 2967 2966 2967 2966 2966 2968 2968 2969 2972 2977 2979 2983 2990 2994 2997 2999 2999 3004 3008 3010 3014 3018 3020 3023 3026 3029 3032 3034 3036 3037 3037 3039 3043 3047 3051 3054 3056 3058 3062 3065 3068 3071 3073 3075 3077 3078 3078 3079 3075 3065 3064 3067 3072 3078 3066 3045 3048 3059 3061 3064 3066 3066 3069 3072 3075 3077 3080 3083 3085 3088
2952 2951 2950 2950 2950 2951 2950 2951 2955 2959 2960 2961 2963 2965 2967 2968 2968 2965 2963 2966 2967 2963 2964 2968 2969 2969 2971 2974 2977 2980 2984 2988 2991 2994 2996 2999 3001 3003 3006 3009 3012 3017 3019 3023 3027 3029 3030 3031 3033 3036 3038 3041 3046 3049 3052 3055 3059 3062 3064 3067 3070 3072 3073 3072 3071 3070 3065 3058 3058 3062 3068 3069 3058 3047 3048 3055 3058 3061 3062 3064 3066 3069 3071 3073 3076 3079 3081 3082
2949 2948 2947 2947 2947 2948 2949 2950 2953 2955 2956 2958 2961 2963 2965 2964 2961 2961 2962 2963 2963 2961 2962 2966 2968 2970 2971 2972 2974 2977 2982 2984 2986 2991 2994 2995 2996 2998 3001 3005 3007 3009 3012 3017 3022 3024 3027 3028 3031 3033 3033 3036 3039 3041 3044 3047 3051 3055 3056 3059 3063 3065 3066 3064 3063 3062 3058 3056 3055 3060 3064 3059 3053 3051 3047 3048 3054 3058 3060 3062 3063 3065 3067 3069 3072 3074 3076 3077
2946 2945 2944 2943 2944 2945 2947 2948 2950 2952 2953 2956 2958 2960 2961 2960 2958 2959 2960 2960 2961 2961 2962 2964 2966 2969 2970 2970 2971 2974 2979 2982 2984 2988 2991 2992 2993 2993 2996 3001 3004 3006 3010 3014 3016 3019 3023 3022 3023 3026 3027 3030 3032 3034 3037 3041 3045 3048 3051 3056 3057 3057 3058 3056 3055 3055 3053 3053 3054 3058 3059 3052 3048 3049 3045 3045 3050 3054 3057 3058 3059 3061 3063 3065 3068 3069 3071 3072
2943 2942 2941 2940 2941 2943 2945 2946 2947 2949 2951 2953 2955 2956 2954 2955 2956 2957 2957 2959 2961 2961 2962 2964 2964 2965 2967 2969 2971 2972 2975 2979 2982 2985 2986 2986 2987 2988 2991 2994 2998 3003 3007 3011 3013 3015 3017 3014 3015 3020 3023 3025 3028 3031 3036 3040 3043 3046 3050 3052 3049 3050 3052 3051 3050 3051 3052 3053 3052 3052 3050 3046 3045 3045 3045 3045 3046 3048 3051 3053 3056 3057 3058 3061 3063 3065 3067 3068
2939 2939 2938 2938 2939 2941 2942 2943 2945 2947 2948 2950 2952 2951 2949 2951 2953 2954 2956 2958 2960 2961 2963 2964 2963 2963 2965 2967 2969 2971 2973 2977 2980 2981 2982 2982 2983 2984 2987 2989 2993 2998 3001 3005 3009 3011 3012 3012 3013 3018 3021 3023 3026 3029 3032 3035 3038 3042 3044 3043 3043 3047 3049 3049 3050 3050 3052 3051 3047 3045 3044 3043 3044 3043 3042 3043 3042 3043 3046 3048 3052 3054 3056 3058 3059 3061 3063 3064
2936 2936 2935 2936 2937 2938 2939 2941 2942 2944 2946 2948 2948 2947 2947 2949 2950 2953 2954 2956 2959 2961 2963 2963 2963 2963 2964 2965 2966 2968 2971 2974 2976 2976 2978 2980 2980 2980 2984 2987 2990 2994 2997 3002 3005 3006 3009 3010 3011 3014 3017 3019 3023 3027 3030 3031 3035 3036 3034 3037 3044 3046 3046 3051 3052 3050 3051 3049 3043 3040 3040 3041 3041 3038 3038 3040 3039 3040 3043 3045 3048 3051 3053 3055 3056 3058 3060 3061
2934 2933 2933 2934 2935 2935 2936 2938 2940 2942 2943 2944 2944 2944 2946 2947 2949 2951 2953 2955 2957 2959 2960 2961 2962 2963 2963 2962 2963 2965 2969 2970 2971 2972 2974 2976 2975 2975 2980 2985 2988 2991 2996 3000 3002 3004 3008 3009 3009 3011 3014 3016 3020 3024 3026 3028 3030 3031 3031 3036 3041 3040 3041 3047 3047 3045 3046 3044 3038 3036 3036 3036 3035 3034 3036 3036 3035 3037 3040 3043 3046 3048 3049 3051 3052 3054 3055 3057
2931 2931 2931 2932 2931 2932 2933 2935 2937 2939 2941 2941 2940 2941 2943 2945 2947 2950 2951 2953 2955 2957 2958 2959 2960 2962 2962 2961 2961 2963 2965 2966 2968 2970 2971 2972 2972 2974 2977 2980 2984 2988 2993 2997 2998 3000 3004 3006 3006 3007 3010 3013 3016 3018 3019 3021 3024 3027 3029 3032 3033 3034 3036 3038 3038 3038 3039 3038 3035 3033 3030 3028 3028 3031 3033 3033 3032 3034 3037 3040 3043 3045 3046 3047 3048 3049 3050 3052
2930 2929 2930 2929 2929 2930 2931 2934 2936 2937 2937 2936 2936 2938 2941 2943 2945 2948 2950 2952 2953 2954 2956 2956 2958 2959 2959 2960 2961 2962 2963 2964 2966 2967 2967 2968 2970 2973 2976 2978 2981 2985 2990 2994 2996 2997 3000 3003 3004 3005 3007 3008 3009 3010 3011 3012 3015 3019 3022 3024 3027 3030 3032 3032 3033 3033 3034 3034 3032 3030 3024 3021 3024 3028 3029 3031 3031 3032 3034 3036 3038 3040 3041 3042 3043 3044 3045 3046
2929 2928 2928 2928 2928 2929 2930 2932 2933 2933 2933 2934 2935 2936 2938 2940 2943 2946 2949 2950 2950 2952 2953 2954 2955 2956 2957 2959 2961 2962 2963 2963 2964 2964 2963 2965 2968 2970 2973 2976 2980 2984 2987 2989 2990 2993 2996 2998 3000 3001 3001 3002 3003 3005 3006 3008 3011 3014 3016 3018 3021 3024 3027 3029 3029 3029 3030 3029 3027 3025 3020 3017 3022 3026 3026 3029 3030 3029 3031 3032 3033 3034 3036 3038 3039 3040 3041 3042
2928 2927 2928 2927 2927 2928 2929 2930 2931 2931 2931 2931 2932 2934 2936 2938 2941 2943 2946 2948 2948 2950 2952 2952 2952 2954 2955 2957 2958 2961 2962 2961 2960 2960 2960 2962 2965 2967 2971 2975 2978 2981 2983 2983 2985 2988 2991 2994 2996 2997 2998 3000 3002 3003 3004 3006 3010 3013 3014 3015 3018 3020 3022 3022 3021 3022 3023 3021 3022 3023 3017 3014 3020 3024 3024 3026 3027 3027 3027 3028 3029 3030 3032 3034 3035 3036 3037 3038
2927 2927 2927 2927 2927 2927 2927 2928 2929 2929 2929 2929 2930 2933 2935 2936 2938 2940 2943 2945 2946 2947 2949 2949 2950 2951 2952 2954 2956 2957 2959 2959 2958 2958 2959 2960 2962 2966 2970 2973 2976 2978 2979 2981 2982 2985 2989 2991 2993 2994 2996 2998 3000 3001 3002 3004 3007 3010 3010 3012 3013 3012 3013 3013 3014 3017 3017 3015 3019 3022 3015 3012 3018 3021 3021 3023 3024 3024 3024 3024 3025 3026 3028 3030 3031 3032 3034 3034
2926 2926 2926 2926 2926 2926 2926 2926 2926 2926 2926 2928 2930 2932 2933 2934 2936 2937 2939 2942 2943 2945 2946 2947 2948 2949 2950 2952 2953 2953 2956 2957 2955 2956 2958 2958 2960 2964 2968 2970 2972 2973 2974 2975 2977 2979 2982 2985 2987 2991 2995 2997 2999 3000 3000 3000 3001 3001 3001 3002 3003 3004 3008 3010 3012 3015 3013 3012 3016 3016 3010 3010 3015 3017 3017 3018 3019 3020 3021 3021 3022 3023 3025 3027 3027 3028 3029 3030
2925 2924 2924 2925 2925 2925 2924 2925 2925 2925 2926 2927 2928 2930 2931 2932 2933 2934 2937 2939 2941 2942 2944 2945 2946 2947 2948 2950 2951 2950 2953 2955 2954 2954 2956 2955 2957 2961 2964 2966 2968 2968 2970 2973 2975 2975 2976 2977 2979 2981 2984 2987 2989 2988 2987 2988 2989 2991 2992 2995 2997 3000 3004 3006 3010 3010 3008 3009 3012 3009 3006 3009 3012 3012 3012 3013 3015 3016 3017 3018 3018 3019 3021 3023 3024 3025 3026 3026
2923 2923 2923 2924 2924 2923 2923 2923 2924 2924 2925 2926 2927 2928 2929 2930 2930 2932 2935 2937 2939 2940 2941 2943 2944 2945 2946 2947 2949 2948 2949 2952 2953 2953 2953 2954 2955 2957 2960 2962 2964 2965 2968 2971 2972 2972 2973 2972 2972 2972 2971 2972 2973 2974 2976 2979 2981 2983 2986 2990 2992 2995 2998 3002 3004 3002 3003 3006 3005 3002 3005 3007 3007 3007 3007 3008 3011 3012 3012 3014 3014 3014 3016 3018 3020 3021 3022 3023
2922 2922 2922 2923 2923 2922 2921 2922 2922 2923 2924 2925 2926 2926 2927 2928 2929 2931 2932 2934 2936 2937 2939 2939 2940 2941 2942 2944 2946 2945 2945 2948 2950 2950 2951 2952 2953 2955 2956 2958 2960 2963 2966 2968 2968 2969 2969 2967 2967 2969 2969 2969 2971 2973 2975 2976 2978 2980 2982 2984 2986 2989 2993 2996 2996 2995 3000 3002 2996 2997 3003 3002 2999 3001 3001 3003 3007 3008 3007 3009 3010 3011 3012 3013 3014 3015 3016 3018
2923 2922 2922 2922 2921 2921 2920 2920 2920 2922 2922 2923 2923 2924 2925 2926 2927 2928 2929 2931 2933 2934 2936 2935 2935 2936 2938 2940 2942 2942 2942 2944 2945 2946 2948 2950 2951 2953 2953 2954 2957 2959 2962 2963 2963 2964 2964 2963 2964 2967 2967 2968 2971 2973 2974 2975 2977 2978 2980 2981 2983 2986 2988 2990 2990 2992 2996 2994 2990 2994 2998 2994 2993 2996 2997 2999 3002 3002 3003 3005 3006 3007 3007 3007 3007 3008 3010 3012
2923 2922 2922 2921 2920 2920 2920 2919 2920 2921 2921 2921 2921 2921 2922 2923 2923 2925 2926 2928 2929 2930 2932 2931 2930 2932 2934 2936 2938 2938 2938 2940 2941 2941 2944 2946 2948 2950 2950 2950 2952 2955 2957 2958 2958 2959 2959 2959 2961 2964 2965 2965 2967 2970 2972 2973 2974 2975 2977 2978 2980 2982 2984 2985 2987 2989 2990 2989 2988 2991 2990 2986 2989 2993 2993 2994 2996 2997 2999 3000 3000 3001 3002 3002 3002 3003 3004 3006
2923 2921 2921 2920 2919 2919 2919 2919 2919 2919 2918 2918 2917 2916 2919 2920 2920 2922 2924 2925 2925 2926 2928 2926 2926 2928 2930 2933 2934 2933 2933 2937 2937 2937 2941 2943 2943 2945 2946 2945 2946 2950 2952 2953 2954 2956 2956 2956 2958 2961 2961 2960 2962 2966 2969 2970 2971 2972 2973 2975 2977 2979 2981 2982 2983 2983 2984 2983 2985 2987 2985 2982 2986 2990 2989 2989 2991 2993 2993 2994 2995 2996 2997 2998 2998 2998 2999 2999
2922 2921 2920 2918 2917 2918 2918 2917 2917 2916 2914 2914 2913 2914 2916 2916 2917 2920 2921 2921 2922 2923 2923 2923 2923 2927 2928 2930 2930 2928 2930 2933 2933 2934 2938 2939 2939 2940 2941 2941 2942 2944 2947 2949 2950 2952 2953 2955 2956 2958 2957 2955 2957 2961 2963 2966 2968 2968 2969 2971 2973 2974 2974 2974 2974 2975 2976 2978 2981 2983 2980 2978 2980 2985 2985 2985 2986 2988 2988 2988 2990 2991 2993 2994 2993 2993 2994 2993
2921 2920 2918 2917 2915 2916 2916 2915 2915 2913 2911 2911 2912 2913 2914 2914 2916 2919 2919 2918 2918 2919 2920 2921 2923 2926 2926 2926 2925 2924 2926 2929 2930 2932 2936 2937 2936 2937 2937 2938 2939 2939 2941 2944 2946 2947 2949 2950 2951 2953 2953 2951 2953 2957 2961 2964 2963 2961 2962 2966 2966 2966 2966 2967 2968 2970 2972 2975 2975 2974 2972 2973 2977 2981 2981 2980 2980 2982 2983 2985 2986 2987 2988 2989 2988 2989 2989 2988